CW8078 Weather Reports


Display with metric or nautical units.
time (UTC)temp
F
wind
direction
speed
MPH
gust
MPH
rain 1hr
in
rain 24hr
in
rain mn
in
humidity
%
barometer
mb
20260831151802 84 171 0.0 0.0 0.00 0.00 0.00 65 1013.6
20260831151303 83 169 0.0 0.0 0.00 0.00 0.00 66 1013.6
20260831150802 83 169 0.0 0.0 0.00 0.00 0.00 67 1013.6
20260831150303 83 174 0.0 1.0 0.00 0.00 0.00 65 1013.6
20260831144303 81 175 0.0 0.0 0.00 0.00 0.00 68 1013.7
20260831143802 80 181 0.0 0.0 0.00 0.00 0.00 68 1013.7
20260831143303 80 188 0.0 0.0 0.00 0.00 0.00 68 1013.7
20260831141303 78 104 0.0 0.0 0.00 0.00 0.00 72 1013.7
20260831140803 78 141 0.0 0.0 0.00 0.00 0.00 72 1013.6
20260831134302 75 134 0.0 0.0 0.00 0.00 0.00 73 1013.6
20260831133803 75 156 0.0 0.0 0.00 0.00 0.00 74 1013.7
20260831133303 74 155 0.0 0.0 0.00 0.00 0.00 74 1013.7
20260831131803 73 121 0.0 0.0 0.00 0.00 0.00 75 1013.5
20260831131303 73 179 0.0 0.0 0.00 0.00 0.00 77 1013.5
20260831130802 73 155 0.0 0.0 0.00 0.00 0.00 76 1013.5
20260831130303 72 156 0.0 1.0 0.00 0.00 0.00 76 1013.4
20260831123803 70 132 0.0 0.0 0.00 0.00 0.00 81 1013.2
20260831123303 70 132 0.0 0.0 0.00 0.00 0.00 81 1013.1
20260831121802 68 161 0.0 0.0 0.00 0.00 0.00 84 1012.9
20260831121303 68 161 0.0 0.0 0.00 0.00 0.00 85 1012.9
20260831120803 68 161 0.0 0.0 0.00 0.00 0.00 86 1012.9
20260831120303 67 161 0.0 0.0 0.00 0.00 0.00 85 1012.9
20260831114803 67 161 0.0 0.0 0.00 0.00 0.00 85 1012.7
20260831114303 68 161 0.0 0.0 0.00 0.00 0.00 85 1012.7
20260831113803 68 161 0.0 0.0 0.00 0.00 0.00 85 1012.7
20260831113303 68 161 0.0 0.0 0.00 0.00 0.00 85 1012.5
20260831111803 68 161 0.0 0.0 0.00 0.00 0.00 84 1012.6
20260831111303 68 161 0.0 0.0 0.00 0.00 0.00 85 1012.6
20260831110803 68 161 0.0 0.0 0.00 0.00 0.00 85 1012.5
20260831104803 69 161 0.0 0.0 0.00 0.00 0.00 84 1012.4
20260831104303 69 161 0.0 0.0 0.00 0.00 0.00 83 1012.3
20260831103803 69 161 0.0 0.0 0.00 0.00 0.00 83 1012.2
20260831103303 69 161 0.0 0.0 0.00 0.00 0.00 82 1012.2
20260831101803 69 161 0.0 0.0 0.00 0.00 0.00 81 1012.2
20260831100803 69 161 0.0 0.0 0.00 0.00 0.00 81 1012.1
20260831100303 69 161 0.0 0.0 0.00 0.00 0.00 81 1012.1
20260831093802 70 161 0.0 0.0 0.00 0.00 0.00 81 1012.1
20260831093303 70 161 0.0 0.0 0.00 0.00 0.00 80 1012.0
20260831091803 70 5 0.0 0.0 0.00 0.00 0.00 79 1012.1
20260831091302 70 3 0.0 0.0 0.00 0.00 0.00 79 1012.1
20260831090803 71 161 0.0 0.0 0.00 0.00 0.00 79 1012.0
20260831084803 71 161 0.0 0.0 0.00 0.00 0.00 78 1012.0
20260831083802 72 42 0.0 0.0 0.00 0.00 0.00 78 1012.0
20260831083304 72 0 0.0 0.0 0.00 0.00 0.00 76 1011.9
20260831081803 73 58 0.0 0.0 0.00 0.00 0.00 75 1011.8
20260831081303 73 159 0.0 0.0 0.00 0.00 0.00 75 1011.7
20260831080803 73 161 0.0 0.0 0.00 0.00 0.00 76 1011.6
20260831080304 74 161 0.0 0.0 0.00 0.00 0.00 75 1011.6
20260831074802 74 161 0.0 0.0 0.00 0.00 0.00 72 1011.7
20260831074303 75 161 0.0 0.0 0.00 0.00 0.00 72 1011.7
20260831073803 75 161 0.0 0.0 0.00 0.00 0.00 71 1011.7
20260831073303 75 161 0.0 0.0 0.00 0.00 0.00 72 1011.7
20260831071803 76 161 0.0 0.0 0.00 0.00 0.00 70 1011.8
20260831071305 76 161 0.0 0.0 0.00 0.00 0.00 70 1011.8
20260831070803 76 161 0.0 0.0 0.00 0.00 0.00 69 1011.8
20260831064803 77 161 0.0 0.0 0.00 0.00 0.00 67 1011.9
20260831063803 77 144 0.0 0.0 0.00 0.00 0.00 67 1012.0
20260831063303 77 144 0.0 0.0 0.00 0.00 0.00 68 1012.0
20260831061803 76 151 0.0 0.0 0.00 0.00 0.00 73 1012.1
20260831061303 76 120 0.0 0.0 0.00 0.00 0.00 69 1012.2
20260831060803 77 120 0.0 0.0 0.00 0.00 0.00 70 1012.1
20260831060303 77 120 0.0 0.0 0.00 0.00 0.00 70 1012.1
20260831054803 78 120 0.0 0.0 0.00 0.00 0.00 65 1012.0
20260831054303 78 120 0.0 0.0 0.00 0.00 0.00 67 1012.0
20260831053803 78 120 0.0 0.0 0.00 0.00 0.00 66 1012.0
20260831053303 79 120 0.0 0.0 0.00 0.00 0.00 66 1011.9
20260831051803 79 120 0.0 0.0 0.00 0.00 0.00 65 1011.7
20260831051303 79 120 0.0 0.0 0.00 0.00 0.00 66 1011.7
20260831050803 79 120 0.0 0.0 0.00 0.00 0.00 67 1011.6
20260831050303 79 140 0.0 0.0 0.00 0.00 0.00 67 1011.6
20260831044803 78 173 0.0 0.0 0.00 0.00 0.00 69 1011.5
20260831043803 78 173 0.0 0.0 0.00 0.00 0.00 69 1011.5
20260831041804 79 140 0.0 0.0 0.00 0.00 0.00 69 1011.6
20260831041303 79 123 0.0 0.0 0.00 0.00 0.00 69 1011.5
20260831040803 79 103 0.0 0.0 0.00 0.00 0.00 69 1011.5
20260831040303 79 129 0.0 0.0 0.00 0.00 0.00 69 1011.5
20260831034803 80 141 0.0 0.0 0.00 0.00 0.00 69 1011.5
20260831034303 80 155 0.0 0.0 0.00 0.00 0.00 69 1011.4
20260831033303 80 143 0.0 0.0 0.00 0.00 0.00 68 1011.4
20260831031303 81 140 0.0 0.0 0.00 0.00 0.00 68 1011.4
20260831030803 81 153 0.0 0.0 0.00 0.00 0.00 68 1011.3
20260831030303 81 153 0.0 0.0 0.00 0.00 0.00 68 1011.3
20260831024803 82 152 0.0 0.0 0.00 0.00 0.00 68 1011.2
20260831024303 82 144 0.0 0.0 0.00 0.00 0.00 68 1011.1
20260831023803 82 149 0.0 0.0 0.00 0.00 0.00 68 1011.1
20260831023303 82 152 0.0 0.0 0.00 0.00 0.00 67 1011.0
20260831021803 82 144 0.0 1.0 0.00 0.00 0.00 67 1011.0
20260831021303 83 144 0.0 0.0 0.00 0.00 0.00 67 1010.9
20260831020303 83 144 0.0 0.0 0.00 0.00 0.00 67 1010.8
20260831014803 83 143 0.0 0.0 0.00 0.00 0.00 67 1010.6
20260831014303 83 146 0.0 0.0 0.00 0.00 0.00 67 1010.5
20260831013803 84 146 0.0 0.0 0.00 0.00 0.00 67 1010.3
20260831011803 84 146 0.0 0.0 0.00 0.00 0.00 66 1010.3
20260831010303 85 146 0.0 0.0 0.00 0.00 0.00 64 1010.4
20260831004804 86 147 0.0 0.0 0.00 0.00 0.00 63 1010.3
20260831003804 86 151 0.0 0.0 0.00 0.00 0.00 62 1010.3
20260831003303 87 133 0.0 0.0 0.00 0.00 0.00 62 1010.3
20260831001804 88 130 0.0 0.0 0.00 0.00 0.00 61 1010.4
20260831001304 88 130 0.0 0.0 0.00 0.00 0.00 60 1010.4
20260831000803 88 135 0.0 0.0 0.00 0.00 0.00 59 1010.3
20260831000303 89 148 0.0 1.0 0.00 0.00 0.00 60 1010.3
20260830234803 89 142 0.0 0.0 0.00 0.00 0.00 57 1010.3
20260830234303 90 168 0.0 0.0 0.00 0.00 0.00 57 1010.3
20260830233803 90 168 0.0 0.0 0.00 0.00 0.00 56 1010.4
20260830233303 90 176 0.0 0.0 0.00 0.00 0.00 57 1010.4
20260830231803 90 180 0.0 0.0 0.00 0.00 0.00 56 1010.4
20260830230303 92 180 0.0 0.0 0.00 0.00 0.00 50 1010.3
20260830224804 93 173 0.0 0.0 0.00 0.00 0.00 48 1010.3
20260830224304 93 144 0.0 0.0 0.00 0.00 0.00 47 1010.3
20260830223803 93 128 0.0 0.0 0.00 0.00 0.00 49 1010.3
20260830223303 94 128 0.0 0.0 0.00 0.00 0.00 48 1010.3
20260830221804 94 171 0.0 0.0 0.00 0.00 0.00 46 1010.3
20260830221303 95 153 0.0 0.0 0.00 0.00 0.00 44 1010.3
20260830220803 94 180 0.0 0.0 0.00 0.00 0.00 44 1010.3
20260830220303 94 152 0.0 1.0 0.00 0.00 0.00 45 1010.3
20260830214803 94 149 0.0 0.0 0.00 0.00 0.00 45 1010.4
20260830214303 95 140 0.0 0.0 0.00 0.00 0.00 45 1010.4
20260830213803 95 146 0.0 0.0 0.00 0.00 0.00 48 1010.5
20260830213304 95 126 0.0 0.0 0.00 0.00 0.00 44 1010.6
20260830211803 95 150 0.0 0.0 0.00 0.00 0.00 43 1010.8
20260830211303 95 163 0.0 0.0 0.00 0.00 0.00 43 1010.8
20260830210803 95 139 0.0 0.0 0.00 0.00 0.00 42 1010.8
20260830210304 95 161 0.0 0.0 0.00 0.00 0.00 45 1010.8
20260830204803 95 128 0.0 0.0 0.00 0.00 0.00 43 1010.9
20260830204303 95 183 0.0 0.0 0.00 0.00 0.00 45 1011.0
20260830203803 95 154 0.0 0.0 0.00 0.00 0.00 43 1011.0
20260830203303 95 134 0.0 0.0 0.00 0.00 0.00 43 1011.1
20260830201803 95 167 0.0 1.0 0.00 0.00 0.00 44 1011.2
20260830201304 95 127 0.0 3.0 0.00 0.00 0.00 45 1011.3
20260830200803 95 174 0.0 0.0 0.00 0.00 0.00 44 1011.3
20260830194803 95 172 0.0 0.0 0.00 0.00 0.00 43 1011.6
20260830194303 95 160 0.0 0.0 0.00 0.00 0.00 44 1011.6
20260830193803 95 164 0.0 0.0 0.00 0.00 0.00 44 1011.6
20260830193303 95 141 0.0 0.0 0.00 0.00 0.00 44 1011.8
20260830191803 95 148 0.0 0.0 0.00 0.00 0.00 45 1011.9
20260830191304 95 167 0.0 0.0 0.00 0.00 0.00 44 1012.0
20260830190804 95 167 0.0 0.0 0.00 0.00 0.00 45 1012.1
20260830190303 94 146 0.0 0.0 0.00 0.00 0.00 45 1012.1
20260830184803 94 142 0.0 0.0 0.00 0.00 0.00 48 1012.3
20260830184304 94 148 0.0 1.0 0.00 0.00 0.00 43 1012.3
20260830183803 95 185 0.0 0.0 0.00 0.00 0.00 45 1012.3
20260830183304 95 242 0.0 0.0 0.00 0.00 0.00 46 1012.2
20260830181803 94 205 0.0 0.0 0.00 0.00 0.00 44 1012.3
20260830180804 93 215 0.0 0.0 0.00 0.00 0.00 45 1012.4
20260830180304 94 176 0.0 1.0 0.00 0.00 0.00 45 1012.5
20260830174804 93 145 0.0 0.0 0.00 0.00 0.00 47 1012.7
20260830174303 93 145 0.0 0.0 0.00 0.00 0.00 45 1012.7
20260830173803 93 176 0.0 0.0 0.00 0.00 0.00 48 1012.8
20260830171804 92 172 0.0 0.0 0.00 0.00 0.00 46 1013.0
20260830171304 92 163 0.0 0.0 0.00 0.00 0.00 47 1013.1
20260830170804 92 142 0.0 0.0 0.00 0.00 0.00 49 1013.1
20260830170306 92 138 0.0 0.0 0.00 0.00 0.00 47 1013.1
20260830164303 89 137 0.0 0.0 0.00 0.00 0.00 54 1013.2
20260830163804 88 205 0.0 0.0 0.00 0.00 0.00 53 1013.2
20260830163304 88 162 0.0 0.0 0.00 0.00 0.00 56 1013.2
20260830161303 86 141 0.0 0.0 0.00 0.00 0.00 57 1013.3
20260830160304 85 135 0.0 1.0 0.00 0.00 0.00 57 1013.4
20260830154803 84 164 0.0 0.0 0.00 0.00 0.00 61 1013.5
20260830154302 83 142 0.0 0.0 0.00 0.00 0.00 60 1013.5
20260830153802 83 167 0.0 0.0 0.00 0.00 0.00 60 1013.5
20260830153302 82 158 0.0 0.0 0.00 0.00 0.00 62 1013.5